Dewpoint
54 54 54 54 54 54 54 54 54 54 54 54 55 55 56 56 57 55 41 32 40 58 66 60 54 48 50 52 56 65 59 55 53 57 58 62 59 63 62 58 59 60 60 63 66
54 54 54 54 54 54 54 54 54 54 54 54 54 54 56 57 54 49 49 51 55 65 59 52 48 41 35 43 49 59 58 55 59 60 59 60 59 60 58 58 59 62 64 66 67
54 54 54 54 54 54 54 54 54 54 54 54 54 54 56 56 46 24 54 56 60 66 47 44 44 35 38 41 53 60 58 61 61 61 60 60 60 61 58 57 58 62 64 66 66
54 54 54 53 54 54 54 54 53 53 53 53 53 55 56 53 -3 49 60 61 63 51 35 36 35 36 44 43 59 58 60 59 63 61 60 59 62 59 61 60 62 64 65 65 65
54 53 53 53 53 53 53 53 53 53 53 53 53 55 51 40 28 26 68 61 60 46 33 31 38 42 42 47 56 55 58 62 62 60 61 60 59 60 61 62 63 64 64 64 65
54 54 53 53 53 53 52 52 52 51 52 52 53 55 46 8 13 54 58 54 53 42 33 33 41 49 52 50 53 55 58 58 62 62 60 59 59 58 62 63 62 63 63 64 64
54 54 54 53 53 53 53 53 53 53 52 52 53 53 47 16 40 53 52 48 45 34 31 32 46 49 52 46 55 60 58 58 61 61 59 60 59 60 63 63 61 61 62 63 63
54 54 53 53 53 53 55 55 54 53 52 53 53 50 29 32 41 41 39 35 34 26 32 31 47 49 49 45 44 58 56 53 61 60 60 59 55 61 63 63 59 60 60 62 62
54 54 54 53 53 53 54 54 54 54 53 54 48 45 25 44 42 38 40 32 26 24 26 32 43 44 39 28 29 47 49 52 56 61 59 58 56 60 63 61 58 59 59 60 60
54 54 53 53 52 52 53 53 55 56 55 53 51 42 39 35 39 34 40 24 24 22 27 27 34 33 27 26 27 35 47 51 52 57 59 57 56 58 60 58 57 58 58 58 59
54 54 54 53 53 51 48 50 40 40 47 28 30 32 33 36 36 35 38 32 28 28 29 33 33 34 28 27 29 28 46 53 55 60 56 56 56 56 59 56 58 56 57 58 59
55 54 54 53 53 52 48 35 34 38 35 42 40 39 38 37 31 33 33 29 27 29 33 29 32 33 31 28 31 37 50 54 56 58 57 56 56 56 59 57 58 56 56 58 59
56 54 54 53 52 48 43 38 40 42 32 29 40 36 32 34 30 32 31 28 27 31 33 30 31 29 27 27 25 29 38 53 53 56 58 56 55 56 59 58 57 58 56 57 59
56 55 54 52 46 43 37 39 40 37 24 27 28 30 32 30 27 32 32 31 29 29 31 30 31 27 27 27 29 22 30 52 53 50 48 53 46 55 56 58 59 56 54 57 59
55 55 52 52 44 37 35 41 41 27 22 30 30 30 30 26 28 31 34 28 25 27 28 28 26 27 26 26 23 25 29 50 52 50 47 48 45 49 57 56 58 58 58 55 57
55 54 52 49 49 44 45 40 27 24 25 31 31 30 22 22 27 29 30 29 28 25 25 27 26 24 25 26 24 33 49 48 48 47 42 44 44 46 52 54 57 57 56 54 56
53 52 51 49 32 43 41 34 27 26 33 27 30 31 28 23 25 27 27 26 24 22 22 25 26 25 23 21 23 26 39 40 40 40 39 44 46 44 54 55 57 58 57 54 56
51 50 50 49 47 42 36 28 26 34 32 33 32 25 27 30 34 33 26 26 26 26 26 24 23 26 23 23 19 28 32 37 32 35 37 47 43 45 56 59 58 58 58 56 58
50 44 45 46 49 44 30 28 27 32 32 31 26 26 29 33 33 34 32 27 28 26 22 27 26 29 22 20 21 24 30 35 33 31 39 44 47 52 58 57 59 61 61 60 58
46 43 38 47 47 35 28 29 33 37 35 31 25 27 29 33 32 33 31 34 31 32 28 26 24 28 28 28 32 27 27 26 27 27 31 41 44 44 55 58 59 60 61 62 64
42 35 38 46 40 35 31 30 35 37 38 28 27 31 33 33 36 36 35 33 36 34 30 34 29 27 28 27 28 29 29 28 29 31 33 37 41 53 54 58 59 60 61 62 63
39 31 39 37 32 37 31 35 37 32 35 30 29 31 32 35 36 35 34 35 39 37 24 31 29 27 27 28 29 31 29 28 27 31 38 38 42 56 58 59 60 60 61 63 64
38 37 41 36 27 26 35 35 35 23 24 27 28 29 33 33 30 35 37 39 40 28 20 25 27 27 26 21 27 19 22 32 31 40 39 35 41 58 58 58 59 60 61 61 62
38 24 31 29 31 28 34 29 18 25 26 28 30 27 28 29 32 32 33 35 32 33 46 36 29 28 24 23 27 26 19 27 27 27 38 39 49 56 56 55 58 59 59 60 61
38 34 36 18 21 23 26 22 23 20 23 32 33 33 28 30 31 31 31 29 30 38 33 28 26 28 27 26 27 22 24 24 26 30 35 42 49 53 54 55 56 57 57 58 58
40 37 41 38 30 18 23 20 20 23 24 27 33 32 35 33 33 31 29 26 28 31 29 28 28 28 32 30 24 24 32 30 44 43 47 49 49 54 56 55 56 56 55 55 56
46 45 39 36 18 20 21 23 25 26 25 30 33 32 28 29 29 29 28 28 29 27 29 32 30 30 27 31 27 25 26 35 34 49 49 47 50 55 54 54 54 54 54 54 54
Lifted_Index
17 17 17 17 16 16 16 16 16 16 16 15 15 15 15 14 14 13 13 13 13 9 5 4 6 5 3 1 -0 -1 -1 -1 -0 -0 -1 -1 -1 -1 -0 -0 -0 -0 -0 -1 -2
17 17 17 16 16 16 16 16 16 16 15 15 15 15 14 14 13 13 13 13 11 7 5 6 6 5 2 0 0 -0 -1 -1 -1 -1 -1 -1 -1 -1 -0 -0 -0 -1 -1 -1 -2
17 17 17 16 16 16 16 16 15 15 15 15 15 15 14 13 12 11 11 10 8 6 6 7 7 4 1 -0 -0 -0 -1 -1 -1 -1 -1 -1 -1 -1 -0 0 -0 -1 -1 -2 -2
17 17 17 17 16 16 16 15 15 15 15 15 15 14 14 12 10 9 8 8 7 6 7 8 6 2 -0 -0 -0 -1 -1 -2 -2 -2 -1 -1 -1 -1 -0 0 -0 -1 -1 -2 -2
17 17 17 17 16 16 15 15 15 15 15 15 14 13 12 11 10 8 6 6 7 7 8 8 6 1 -0 -0 -0 -1 -1 -2 -2 -2 -2 -1 -1 -0 -0 -0 -0 -1 -1 -1 -1
16 17 17 16 16 16 15 15 15 15 15 15 14 12 11 10 10 8 6 7 8 9 9 8 5 1 0 0 -0 -1 -2 -2 -3 -3 -2 -1 -1 -0 -0 -0 -1 -1 -1 -1 -1
16 16 16 15 15 14 14 14 14 15 15 14 13 11 10 10 10 8 8 9 10 10 9 8 5 1 1 2 0 -2 -2 -2 -3 -2 -2 -1 -1 -1 -0 -1 -1 -1 -1 -1 -1
15 15 15 14 13 13 13 13 14 14 14 13 12 11 10 10 9 8 8 9 10 10 10 8 4 1 2 3 1 -2 -2 -2 -2 -2 -2 -1 -1 -1 -1 -1 -1 -1 -1 -1 -1
14 14 14 13 13 12 12 12 12 12 12 12 11 10 10 9 8 7 8 9 10 11 10 7 3 1 2 2 1 -1 -2 -2 -2 -2 -2 -1 -1 -1 -1 -1 -1 -1 -1 -1 -1
13 12 12 12 12 12 11 11 10 10 10 10 10 9 9 8 7 8 8 9 10 10 9 6 2 0 1 2 1 -0 -1 -2 -2 -2 -2 -2 -1 -1 -1 -1 -1 -1 -1 -1 -1
12 11 11 11 11 11 10 9 9 9 9 9 9 8 8 7 7 7 8 9 10 9 7 4 1 0 1 2 1 0 -1 -2 -2 -2 -2 -1 -1 -1 -1 -0 -1 -1 -1 -1 -1
12 11 10 9 9 9 8 8 8 8 8 8 7 7 6 6 6 7 7 8 9 8 5 3 1 1 1 2 1 -0 -1 -1 -2 -2 -1 -1 -1 -1 -0 -0 -0 -1 -1 -1 -1
11 10 9 8 8 7 7 6 6 7 7 6 6 6 5 5 5 5 6 7 7 6 4 2 2 2 2 1 0 -0 -1 -1 -2 -2 -1 -1 -1 -1 -1 -0 -0 -0 -0 -1 -1
10 10 9 8 7 6 6 5 5 5 5 5 5 5 5 5 4 4 4 5 5 5 3 3 3 3 2 2 1 0 -0 -1 -2 -2 -1 -1 -1 -1 -1 -1 -1 -0 -1 -1 -0
10 9 9 8 6 6 5 5 4 4 3 3 4 4 4 4 4 3 3 4 4 4 3 3 4 4 4 3 2 1 0 -1 -2 -2 -1 -1 -0 -0 -1 -1 -1 -1 -1 -1 -1
9 9 8 7 6 5 5 4 3 3 2 3 3 3 3 3 3 3 3 3 3 4 4 4 4 5 5 5 4 2 0 -1 -2 -1 -1 -1 -0 -0 -0 -1 -1 -0 -0 -1 -1
9 8 8 7 6 5 4 3 2 2 2 2 3 3 2 2 2 2 2 2 3 4 4 4 4 5 5 5 5 4 2 -0 -1 -1 -1 -1 -0 -0 -0 0 0 0 -0 -1 -1
7 7 6 6 5 4 3 2 2 2 2 2 2 2 2 2 2 2 2 2 3 3 4 3 4 4 5 5 5 4 3 1 -0 -0 -1 -1 -0 -0 -0 -0 -0 -0 -0 -0 -1
6 5 5 5 4 3 2 2 2 2 1 1 1 1 1 1 1 1 1 2 2 3 3 3 3 3 4 4 4 4 3 2 1 0 -1 -1 -1 -1 -1 -1 -1 -1 -1 -1 -1
4 4 4 4 3 2 2 2 2 1 1 1 1 1 1 1 1 0 1 1 2 2 3 3 3 2 3 3 3 3 3 2 2 1 -0 -0 -1 -1 -1 -1 -1 -1 -1 -2 -2
3 3 3 3 2 2 2 2 1 1 1 1 1 0 0 0 0 -0 0 0 1 1 2 2 2 1 1 2 2 3 3 2 2 1 1 0 -0 -1 -2 -2 -2 -2 -2 -2 -2
2 2 2 2 2 2 1 1 1 1 1 1 1 0 -0 -0 -0 -0 -0 -0 0 0 1 1 1 0 1 1 1 2 2 2 2 1 1 1 0 -1 -2 -2 -2 -2 -2 -2 -2
2 2 2 2 2 2 2 1 1 1 1 1 1 0 0 -0 -0 -0 -0 -0 -0 -0 0 0 0 -0 -0 0 0 1 1 1 1 1 0 0 -0 -1 -2 -2 -2 -2 -2 -2 -2
2 2 2 2 2 2 2 2 2 2 2 1 1 1 0 0 0 -0 -0 -0 -0 -0 0 0 0 -0 -0 -0 -0 0 0 0 0 0 -0 -0 -1 -2 -2 -2 -2 -2 -2 -2 -2
2 2 2 2 3 3 3 3 2 2 2 1 1 1 1 1 0 0 0 0 0 0 0 0 0 -0 -0 -0 -0 -0 -0 0 0 0 -0 -1 -2 -2 -3 -3 -2 -2 -2 -2 -2
2 2 2 3 3 3 3 3 3 3 3 2 1 1 1 1 1 1 1 1 1 1 1 0 0 -0 -0 -0 -0 -0 -0 -0 -0 -0 -1 -2 -2 -2 -3 -3 -2 -2 -1 -1 -1
2 2 2 2 3 3 3 3 4 4 3 2 1 1 1 1 1 1 1 1 1 1 1 1 0 -0 -0 -0 0 -0 -0 -0 -0 -1 -2 -2 -2 -3 -3 -2 -2 -2 -1 -1 -1